SCP
1 1 1 1 0 0 0 0 0 0 0 0 0 0 0 0 0 0 0 1 1 1 1 1 1 1 1 1 1 1 1 1 1 1 1 1 1 0 0 0 0 0 0 0 0 0 1 1 1
1 1 1 0 0 0 0 0 0 0 0 0 0 0 0 0 0 0 1 1 1 1 1 1 2 2 1 1 1 1 1 1 1 1 1 1 1 1 1 0 0 0 0 0 0 0 0 1 1
1 1 1 0 0 0 0 0 0 0 0 0 0 0 0 0 0 0 1 1 1 1 2 2 2 2 2 2 2 2 2 1 1 1 1 1 1 1 1 1 0 0 0 0 0 0 0 1 1
1 1 1 0 0 0 0 0 0 0 0 0 1 1 0 0 0 1 1 1 1 1 2 2 2 2 2 2 2 2 2 1 1 1 1 1 1 1 1 1 1 0 1 0 0 0 0 0 1
1 1 0 0 0 0 0 0 0 0 0 1 1 1 1 1 1 1 1 1 1 1 1 1 2 2 2 2 2 2 2 2 2 2 1 1 1 1 1 1 1 1 0 0 0 0 0 0 0
1 1 0 0 0 0 0 0 0 0 0 1 1 1 1 1 1 1 1 1 1 2 1 1 1 1 1 1 2 2 2 2 2 2 2 1 1 1 1 1 1 1 0 0 0 1 0 0 0
0 0 0 0 0 0 0 0 0 1 1 1 1 1 1 1 1 1 2 2 2 1 1 1 1 1 1 1 1 1 1 2 2 2 2 2 1 1 1 1 1 1 1 0 0 0 0 0 0
0 0 0 0 0 0 1 1 1 1 1 1 1 1 1 1 1 1 2 2 1 1 1 1 1 1 1 1 1 1 1 1 1 1 2 2 1 1 1 1 1 1 1 1 0 0 0 0 0
0 0 0 0 1 1 1 1 1 1 1 1 1 1 1 2 2 1 1 1 1 1 1 1 1 1 1 1 1 1 1 1 1 1 1 2 2 1 1 1 1 1 1 1 1 1 1 0 0
0 0 0 0 1 1 1 1 1 1 1 1 1 1 1 2 2 1 1 1 1 0 0 0 0 0 0 0 1 1 1 1 1 1 1 1 2 2 1 2 1 1 1 1 1 1 1 0 0
0 0 0 1 1 1 1 1 1 1 1 1 2 2 1 2 2 1 1 1 0 0 0 0 0 0 0 0 0 0 1 1 1 1 1 1 1 2 2 2 1 1 1 1 1 1 1 1 0
1 1 1 1 0 0 1 1 1 1 1 2 2 2 2 1 1 1 0 0 0 0 0 0 0 0 0 0 0 0 0 1 1 1 1 1 1 2 2 2 1 1 2 1 1 1 1 1 0
1 1 1 1 0 1 1 1 1 1 1 2 2 2 2 1 1 0 0 0 0 0 0 0 0 0 0 0 0 0 0 0 0 1 1 1 1 1 1 1 1 1 1 1 1 1 1 1 1
1 1 1 1 1 1 1 1 1 2 1 1 1 1 1 1 0 0 0 0 0 0 0 0 0 0 0 0 0 0 0 0 0 0 1 1 1 1 1 1 1 1 1 1 1 1 1 1 1
1 1 1 1 1 1 1 1 2 2 1 1 1 1 1 0 0 0 0 0 0 0 0 0 0 0 0 0 0 0 0 0 0 0 0 1 1 1 1 1 1 1 1 1 1 1 1 1 1
1 1 1 1 1 1 0 1 2 2 1 1 1 1 1 0 0 0 0 0 0 0 0 0 0 0 0 0 0 0 0 0 0 0 0 0 1 1 1 1 1 1 1 1 1 1 1 1 1
1 1 0 1 1 1 0 1 2 2 1 1 1 1 1 0 0 0 0 0 0 0 0 0 0 0 0 0 0 0 0 0 0 0 0 0 0 0 1 1 1 1 1 1 1 1 1 1 1
0 0 0 0 0 0 0 1 2 2 1 1 1 1 1 0 0 0 0 0 0 0 0 0 0 0 0 0 0 0 0 0 0 0 0 0 0 0 1 1 1 1 1 1 1 1 1 1 1
0 0 0 0 0 0 0 1 1 1 1 1 1 0 0 0 0 0 0 0 0 0 0 0 0 0 0 0 0 0 0 0 0 0 0 0 0 0 1 1 1 1 1 1 1 1 1 1 1
0 0 0 0 0 0 0 0 1 1 1 0 0 0 0 0 0 0 0 0 0 0 0 0 0 0 0 0 0 0 0 0 0 0 0 0 0 0 0 1 1 1 1 1 1 1 1 1 1
0 0 0 0 0 0 0 0 0 0 0 0 0 0 0 0 0 0 0 0 0 0 0 0 0 0 0 0 0 0 0 0 0 0 0 0 0 0 0 0 0 1 1 1 1 1 1 1 1
0 0 0 0 0 0 0 0 0 0 0 0 0 0 0 0 0 0 0 0 0 0 0 0 0 0 0 0 0 0 0 0 0 0 0 0 0 0 0 0 0 0 1 1 1 1 1 1 1
0 0 0 0 0 0 0 0 0 0 0 0 0 0 0 0 0 0 0 0 0 0 0 0 0 0 0 0 0 0 0 0 0 0 0 0 0 0 0 0 0 0 1 1 1 1 1 1 1
0 0 0 0 0 0 0 0 0 0 0 0 0 0 0 0 0 0 0 0 0 0 0 0 0 0 0 0 0 0 0 0 0 0 0 0 0 0 0 0 0 0 0 1 1 1 1 1 1
0 0 0 0 0 0 0 0 0 0 0 0 0 0 0 0 0 0 0 0 0 0 0 0 0 0 0 0 0 0 0 0 0 0 0 0 0 0 0 0 0 0 0 0 1 1 1 1 1
0 0 0 0 0 0 0 0 0 0 0 0 0 0 0 0 0 0 0 0 0 0 0 0 0 0 0 0 0 0 0 0 0 0 0 0 0 0 0 0 0 0 0 0 1 1 1 1 1
0 0 0 0 0 0 0 0 0 0 0 0 0 0 0 0 0 0 0 0 0 0 0 0 0 0 0 0 0 0 0 0 0 0 0 0 0 0 0 0 0 0 0 0 1 1 1 1 1
0 0 0 0 0 0 0 0 0 0 0 0 0 0 0 0 0 0 0 0 0 0 0 0 0 0 0 0 0 0 0 0 0 0 0 0 0 0 0 0 0 0 0 0 0 1 1 1 1
0 0 0 0 0 0 0 0 0 0 0 0 0 0 0 0 0 0 0 0 0 0 0 0 0 0 0 0 0 0 0 0 0 0 0 0 0 0 0 0 0 0 0 0 0 0 1 1 1
0 0 0 0 0 0 0 0 0 0 0 0 0 0 0 0 0 0 0 0 0 0 0 0 0 0 0 0 0 0 0 0 0 0 0 0 0 0 0 0 0 0 0 0 0 0 0 1 1
Wind_Speed
9 9 6 2 2 2 5 6 9 9 7 8 9 10 13 13 9 6 2 6 7 10 11 9 8 6 5 4 3 2 1 1 1 1 1 1 1 1 2 2 2 2 2 2 2 3 3 4 4
9 7 4 3 2 1 5 6 8 8 8 6 7 12 12 11 10 6 4 6 7 9 9 9 8 6 4 2 1 0 1 1 2 3 3 3 3 3 3 3 3 3 3 2 2 2 2 3 3
10 8 4 2 1 3 5 5 5 7 8 7 9 12 9 7 7 5 5 6 8 10 11 10 9 7 5 3 2 2 2 3 3 4 4 5 4 4 4 4 4 4 3 3 3 2 2 2 3
6 4 4 2 3 7 7 5 4 5 7 8 8 10 8 7 4 5 6 8 10 10 10 10 10 8 7 6 4 3 3 3 4 5 5 5 5 5 5 5 5 5 4 4 3 3 3 2 3
5 3 2 2 4 7 6 6 6 6 7 9 10 10 8 7 7 7 7 8 9 8 8 8 9 8 7 6 5 4 3 3 3 4 5 5 6 6 6 6 6 6 5 5 4 4 4 4 3
3 3 1 1 3 6 5 5 6 7 9 9 8 9 7 7 7 7 7 8 8 7 7 6 7 6 5 5 4 4 4 3 3 4 4 5 6 7 7 7 7 6 6 6 5 5 5 5 5
4 4 3 2 4 4 5 5 7 6 8 9 7 7 7 8 6 5 6 6 6 5 5 4 3 3 3 3 3 3 3 3 3 3 4 5 6 7 8 8 8 8 8 7 7 7 6 6 6
4 5 6 4 4 4 5 4 7 7 8 8 8 6 6 6 6 5 5 5 5 4 4 3 1 2 1 0 0 2 3 4 4 5 5 6 8 8 9 9 9 10 9 9 8 8 8 8 8
6 3 3 3 3 5 4 5 5 5 9 11 12 11 8 6 6 4 3 4 4 4 3 2 1 1 0 1 1 2 3 4 4 5 5 5 4 4 5 7 8 9 10 10 10 9 9 9 9
5 1 2 3 5 5 4 4 3 4 6 8 9 8 6 4 4 4 4 5 5 4 5 4 4 3 2 2 1 1 2 1 2 2 2 2 2 3 4 4 7 8 9 10 10 11 10 8 6
2 1 3 5 6 4 3 3 2 2 4 6 7 6 5 3 4 4 5 6 5 5 6 6 6 5 4 2 2 1 1 1 2 3 3 3 2 3 3 2 3 3 6 5 5 6 5 6 6
2 2 3 5 4 2 2 3 2 6 6 8 7 4 3 3 5 4 5 5 4 5 4 5 6 6 6 4 3 3 2 1 2 3 3 3 2 2 2 2 2 2 2 2 2 3 5 7 7
2 2 4 4 2 1 1 2 3 5 5 6 5 3 3 4 4 4 5 5 5 5 4 5 5 5 5 4 3 4 3 2 2 2 3 3 3 3 3 3 3 3 3 3 3 3 5 6 5
6 5 5 5 4 2 2 4 5 6 6 5 4 3 3 3 3 3 5 5 5 5 5 5 5 5 5 5 5 4 4 3 3 2 3 3 3 3 3 3 3 3 4 4 4 4 4 5 4
5 6 6 5 4 3 4 7 7 10 7 5 4 3 2 1 1 1 4 4 5 5 5 5 5 6 6 5 6 5 4 4 3 3 4 4 3 3 3 3 3 3 4 5 4 4 4 5 4
7 7 5 6 5 3 4 5 10 10 7 5 3 2 3 3 3 2 4 4 5 4 4 4 6 6 5 5 4 4 4 4 4 3 3 5 5 4 3 2 3 3 3 3 4 4 4 4 4
3 5 6 5 8 6 5 5 9 8 6 5 5 4 4 4 2 4 5 4 4 4 4 5 4 4 5 5 4 4 4 4 3 3 3 4 5 5 4 2 3 3 3 3 4 4 4 4 4
4 5 7 6 8 4 5 6 6 9 6 4 3 4 4 2 3 5 4 2 2 3 5 5 4 4 4 4 4 4 4 4 3 3 3 4 4 5 4 3 3 2 2 3 3 4 4 4 4
7 8 9 2 6 2 7 8 4 8 6 5 5 4 3 1 4 6 4 2 3 4 5 5 4 4 3 3 3 4 4 4 3 3 4 4 5 5 4 4 3 2 2 3 4 3 4 4 3
11 11 8 3 5 2 7 9 4 6 5 2 2 4 3 2 3 4 4 3 3 4 4 4 4 4 3 2 3 3 4 4 3 3 4 4 5 5 5 4 3 3 2 3 4 3 3 3 3
10 5 6 8 6 7 8 9 6 8 5 4 2 2 3 3 3 4 5 4 3 4 5 5 4 4 5 5 3 4 4 3 3 4 4 4 5 4 4 4 4 4 3 2 3 3 4 3 3
5 6 5 6 8 7 4 4 6 9 6 6 4 2 0 2 2 2 3 3 3 4 5 5 5 6 6 5 4 5 4 4 5 4 4 6 6 5 4 4 4 4 3 3 3 3 3 3 4
4 4 5 7 8 9 7 6 5 7 4 5 4 2 2 2 2 2 2 3 3 4 4 3 4 4 5 5 4 4 4 4 4 4 5 5 5 5 5 4 4 4 3 4 4 3 3 3 4
1 4 7 7 7 9 6 4 4 4 5 4 4 3 3 3 2 2 2 2 2 3 2 2 2 2 3 3 4 4 4 5 5 5 5 4 4 4 5 5 4 4 3 4 4 3 4 4 4
5 7 5 6 7 3 7 2 5 9 7 5 3 3 3 3 2 2 2 2 2 1 1 2 2 2 2 4 4 4 4 4 5 5 5 5 4 4 5 5 5 4 4 4 4 4 4 4 5
4 6 6 5 3 3 5 3 8 8 6 3 2 2 1 1 2 2 2 1 1 0 0 1 2 2 2 3 4 3 4 3 3 4 4 4 4 4 5 5 5 5 4 5 4 4 4 4 4
5 5 2 5 8 4 5 7 8 6 5 4 2 2 1 1 3 2 2 0 0 0 1 0 2 3 2 3 3 3 3 4 4 5 4 4 4 5 6 6 5 5 4 4 4 3 4 4 4
5 7 3 4 4 4 3 4 5 6 3 2 0 1 1 1 2 3 3 2 1 0 0 1 1 2 2 2 3 3 3 3 4 4 4 5 5 5 6 6 5 5 4 4 3 3 4 4 4
7 6 4 4 4 4 2 4 6 5 3 2 2 1 2 1 1 2 2 2 1 1 2 2 2 1 1 2 3 3 3 3 4 3 4 4 5 5 6 5 5 5 4 4 4 4 4 4 4
2 4 4 4 3 1 2 3 5 5 2 1 1 1 1 3 2 2 2 1 1 1 1 2 1 1 1 1 3 4 4 3 4 4 5 5 6 5 6 6 5 5 5 4 4 5 5 4 4
Wind_Direction
191 205 207 230 249 253 56 54 54 32 34 34 37 58 65 51 38 70 35 24 67 99 114 115 110 109 108 106 104 94 73 48 19 340 313 301 294 300 309 317 324 333 344 354 3 9 9 11 12
207 203 217 236 271 30 64 50 56 47 32 26 52 61 66 60 46 68 29 20 63 84 95 98 98 92 87 86 89 68 301 297 292 285 283 282 279 276 280 286 291 299 308 317 329 339 348 356 357
234 224 239 232 336 63 81 64 59 58 38 35 58 59 53 41 39 45 20 28 65 75 82 82 81 75 66 51 18 338 300 291 287 282 280 276 272 270 270 271 274 280 284 293 301 306 319 329 331
220 229 256 258 78 66 68 61 53 56 53 46 66 73 71 44 43 47 41 50 62 69 80 79 75 71 65 55 41 17 341 315 298 288 282 277 273 271 273 273 273 273 273 277 281 280 284 290 298
231 241 268 322 76 77 65 45 50 59 58 53 69 89 84 67 63 62 54 53 61 65 75 82 76 71 64 57 46 32 13 337 313 298 288 281 278 275 272 270 272 271 271 271 274 270 267 269 275
258 259 269 3 76 80 62 46 49 57 60 52 77 92 83 83 68 64 66 60 59 60 60 81 87 73 61 49 33 18 11 359 339 314 295 280 275 276 273 269 267 269 269 269 267 265 261 261 262
260 276 275 125 99 93 81 47 49 56 53 37 42 94 103 89 89 85 82 81 73 68 65 54 69 84 90 64 37 7 348 339 331 310 293 284 272 267 265 265 264 262 262 262 261 256 253 254 254
267 288 331 20 77 88 84 72 54 45 65 49 35 85 100 102 112 106 106 103 96 87 81 74 66 88 88 118 253 297 304 302 303 291 277 275 267 259 256 256 254 252 255 254 256 253 248 249 249
258 280 348 7 45 93 96 93 83 78 83 75 66 75 98 127 133 118 107 95 80 66 66 64 38 29 18 251 229 234 268 281 285 280 273 270 258 255 251 255 258 250 250 253 254 252 249 247 244
230 288 90 25 39 91 83 73 95 117 101 103 100 102 115 128 108 76 60 43 35 29 29 21 4 351 335 316 348 240 264 240 252 250 251 252 252 253 262 279 269 257 252 252 252 251 250 244 243
247 15 69 63 48 70 92 81 35 77 95 97 108 110 98 80 68 49 42 42 27 28 20 9 1 348 348 341 343 311 278 253 249 245 232 231 244 246 245 234 255 255 254 248 253 248 242 237 237
243 68 66 80 68 31 76 90 55 52 71 85 90 98 100 69 50 47 41 31 22 38 15 15 0 349 350 352 341 292 269 248 251 242 242 224 223 235 235 225 215 215 232 238 235 240 250 253 250
189 97 93 101 137 92 79 113 95 106 104 104 113 118 80 52 27 32 37 21 20 31 13 28 0 354 344 340 316 320 314 300 284 259 253 241 227 230 231 228 218 214 214 224 234 237 260 266 271
128 155 168 160 158 161 210 177 176 149 152 153 165 157 94 67 14 6 35 10 13 17 7 26 356 356 348 348 339 329 320 308 301 288 270 258 242 234 230 235 226 222 218 213 217 228 247 264 263
156 186 188 180 192 174 264 242 186 139 169 184 202 176 112 73 303 17 50 6 16 8 5 17 352 7 356 351 339 326 314 318 323 314 305 298 274 255 240 228 234 227 222 218 212 229 242 255 258
221 232 223 185 189 160 254 297 129 143 180 200 215 193 155 202 243 68 57 16 18 0 359 18 8 358 352 352 330 318 320 326 321 314 311 314 312 298 283 249 243 239 226 213 205 210 226 239 247
229 274 289 202 191 191 232 288 143 160 191 216 215 216 205 216 166 83 61 28 11 350 358 24 17 360 359 350 334 329 329 328 325 325 332 332 328 321 310 287 260 251 239 225 227 211 209 224 231
238 251 265 232 167 224 270 275 173 169 190 236 246 234 229 228 93 89 74 43 6 7 15 19 11 14 4 3 343 339 334 333 330 325 326 331 317 313 309 296 283 265 245 240 233 226 215 220 220
287 272 276 103 117 299 292 285 227 164 176 215 241 244 250 88 87 100 87 61 30 28 25 3 10 13 16 16 341 335 328 326 319 320 337 328 315 311 300 294 296 283 254 247 245 232 225 222 207
265 276 299 41 103 311 290 284 260 154 169 199 288 312 323 46 50 87 81 59 39 39 28 359 17 11 22 11 340 330 326 316 316 330 330 332 324 316 312 306 302 290 267 256 254 244 225 225 203
261 288 345 345 328 279 270 265 209 143 152 168 206 276 317 17 27 31 38 32 32 44 29 2 17 13 23 5 6 348 328 322 346 343 338 331 318 317 320 313 305 300 284 260 257 244 230 225 220
306 50 357 312 295 283 237 290 154 146 165 174 174 193 149 68 66 59 51 36 20 45 37 5 15 17 18 5 5 344 336 345 336 337 330 332 332 338 328 321 314 302 296 282 265 252 235 225 227
21 21 304 284 278 280 247 253 137 145 154 138 127 123 96 93 87 63 63 56 30 50 42 8 11 15 11 353 341 331 345 336 323 329 334 338 331 332 334 331 321 311 299 292 284 278 250 227 225
352 264 252 245 255 257 220 238 124 119 89 82 103 118 120 113 116 123 106 96 65 63 50 359 4 10 354 335 329 338 337 332 327 338 339 331 324 329 339 336 330 317 310 306 299 287 271 250 235
235 259 254 219 216 208 110 177 84 89 75 61 50 61 81 106 123 120 110 87 66 52 47 344 359 350 353 335 331 336 339 335 337 345 333 329 332 331 332 332 321 313 306 300 295 283 274 263 248
237 269 287 303 297 114 154 163 99 99 98 94 107 108 112 147 134 112 106 114 153 217 76 358 341 323 335 324 326 333 343 343 336 331 324 329 327 319 322 319 308 303 301 300 292 282 275 271 262
272 242 322 318 294 284 165 124 125 133 143 141 150 153 185 155 140 154 144 120 323 236 99 4 328 325 333 329 326 336 350 344 333 325 329 328 322 323 328 314 309 305 298 290 290 281 279 277 271
290 330 297 253 297 288 163 146 128 130 99 84 105 137 115 123 157 149 144 159 196 271 191 229 265 281 319 336 332 343 345 331 321 318 325 321 319 320 314 317 318 310 304 300 295 291 280 277 268
190 212 243 279 287 305 346 73 77 88 67 20 352 59 115 119 126 130 144 152 163 229 238 230 237 248 17 356 340 333 323 313 315 321 325 320 320 321 322 323 325 323 319 312 308 298 292 289 284
262 266 252 262 289 239 281 102 106 111 119 101 12 24 100 125 129 148 145 145 212 247 292 302 319 24 62 35 343 322 308 325 339 341 339 337 335 332 331 335 336 333 329 321 310 309 311 301 297